map of KEXX home
KEXX - Airport
Location
City:  Lexington, North Carolina, United States
Name:Davidson County Airport
ICAO:KEXX
FAA LID:EXX

Details
Type:Airport (Airfield)
Use:Public/Civil
Latitude:3546'52"N (35.781139)
Longitude:8018'14"W (-80.303777)
Datum:WGS 1984
Elevation:732 ft (223 m)
Variation:8.25W (WMM2015 magnetic declination)
-0.05 annual change
Runways:1
Longest:5004 × 100 ft (1525 × 30.5 m), paved

Time
Time Zone:UTC-5 (DST-4)
Local Time:

Weather
METAR:KEXX 130600Z AUTO 00000KT 10SM CLR M02/M02 A3020 RMK AO2 T10161016

Related Locations
Nearby:
Farthest:YAUG: 11562 mi / 18608 km
Augusta [Augusta Airport], WA, AU

Find:

   beyond  
but within

Other Information
Maps:
NOTAMs:
Links:
Sources:

  
  • flag of United States
  • flag of North Carolina
  

Sectional Chart

Flight Planning
at skyvector.com

Satellite Image

Google Maps Satellite view

 

Copyright © 2004-2018 Karl L. Swartz. All rights reserved.
The Great Circle Mapper name and logo are trademarks of the Great Circle Mapper.
All other trademarks mentioned herein belong to their respective owners.
Please see credits for attibutions and further copyright information.

  Follow gcmap on Facebook Follow gcmap on Twitter Follow gcmap on Google+ GCmap on LinkedIn

hCard Microformat

Geo Microformat